Stündliche Wetter Abramivka

Heute, 21 Juni, Montag

Zeit Temperatur Niederschläge Wind Luftdruck Luftfeuchtigkeit
00:00 +21°C° 0 mm 3 m/S 749 mmHg 90%
01:00 +20°C° 0 mm 3 m/S 748 mmHg 91%
02:00 +19°C° 0 mm 3 m/S 748 mmHg 93%
03:00 +19°C° 0 mm 3 m/S 748 mmHg 93%
04:00 +19°C° 0 mm 3 m/S 748 mmHg 93%
05:00 +19°C° 0 mm 3 m/S 748 mmHg 92%
06:00 +20°C° 0 mm 3 m/S 748 mmHg 85%
07:00 +22°C° 0 mm 3 m/S 748 mmHg 77%
08:00 +23°C° 0 mm 4 m/S 748 mmHg 70%
09:00 +26°C° 0 mm 4 m/S 748 mmHg 65%
10:00 +27°C° 0 mm 4 m/S 747 mmHg 60%
11:00 +28°C° 0 mm 4 m/S 747 mmHg 56%
12:00 +29°C° 0 mm 4 m/S 747 mmHg 54%
13:00 +30°C° 0 mm 3 m/S 747 mmHg 53%
14:00 +30°C° 0 mm 3 m/S 747 mmHg 52%
15:00 +30°C° 0 mm 3 m/S 747 mmHg 55%
16:00 +30°C° 0 mm 3 m/S 747 mmHg 57%
17:00 +30°C° 0 mm 3 m/S 747 mmHg 60%
18:00 +28°C° 0 mm 3 m/S 747 mmHg 66%
19:00 +27°C° 0 mm 3 m/S 747 mmHg 72%
20:00 +25°C° 0 mm 2 m/S 747 mmHg 78%
21:00 +24°C° 0 mm 2 m/S 747 mmHg 82%
22:00 +23°C° 0 mm 2 m/S 748 mmHg 85%
23:00 +23°C° 0 mm 2 m/S 748 mmHg 88%

Morgen, 22 Juni, Dienstag

Zeit Temperatur Niederschläge Wind Luftdruck Luftfeuchtigkeit
00:00 +21°C° 0 mm 2 m/S 748 mmHg 90%
01:00 +21°C° 0 mm 2 m/S 748 mmHg 91%
02:00 +21°C° 0 mm 2 m/S 748 mmHg 92%
03:00 +21°C° 0 mm 2 m/S 748 mmHg 92%
04:00 +21°C° 0 mm 2 m/S 748 mmHg 92%
05:00 +21°C° 0 mm 2 m/S 748 mmHg 92%
06:00 +24°C° 0 mm 2 m/S 748 mmHg 84%
07:00 +25°C° 0 mm 3 m/S 748 mmHg 76%
08:00 +27°C° 0 mm 3 m/S 749 mmHg 68%
09:00 +28°C° 0 mm 3 m/S 749 mmHg 62%
10:00 +29°C° 0 mm 3 m/S 748 mmHg 57%
11:00 +30°C° 0 mm 4 m/S 748 mmHg 52%
12:00 +30°C° 0 mm 4 m/S 748 mmHg 49%
13:00 +32°C° 0 mm 4 m/S 748 mmHg 46%
14:00 +32°C° 0 mm 5 m/S 748 mmHg 42%
15:00 +32°C° 0 mm 5 m/S 748 mmHg 46%
16:00 +30°C° 0 mm 4 m/S 748 mmHg 50%
17:00 +29°C° 0 mm 4 m/S 748 mmHg 54%
18:00 +28°C° 0 mm 4 m/S 748 mmHg 61%
19:00 +26°C° 0 mm 3 m/S 749 mmHg 68%
20:00 +25°C° 0 mm 3 m/S 749 mmHg 75%
21:00 +24°C° 0 mm 3 m/S 749 mmHg 78%
22:00 +22°C° 0 mm 3 m/S 749 mmHg 81%
23:00 +21°C° 0 mm 2 m/S 749 mmHg 84%

übermorgen, 23 Juni, Mittwoch

Zeit Temperatur Niederschläge Wind Luftdruck Luftfeuchtigkeit
00:00 +21°C° 0 mm 2 m/S 749 mmHg 84%
01:00 +21°C° 0 mm 2 m/S 749 mmHg 85%
02:00 +20°C° 0 mm 2 m/S 749 mmHg 86%
03:00 +20°C° 0 mm 2 m/S 750 mmHg 86%
04:00 +20°C° 0 mm 2 m/S 750 mmHg 86%
05:00 +20°C° 0 mm 2 m/S 750 mmHg 86%
06:00 +23°C° 0 mm 2 m/S 750 mmHg 79%
07:00 +25°C° 0 mm 3 m/S 750 mmHg 73%
08:00 +27°C° 0 mm 3 m/S 750 mmHg 67%
09:00 +29°C° 0 mm 3 m/S 750 mmHg 61%
10:00 +30°C° 0 mm 3 m/S 750 mmHg 55%
11:00 +33°C° 0 mm 4 m/S 750 mmHg 48%
12:00 +33°C° 0 mm 4 m/S 750 mmHg 47%
13:00 +34°C° 0 mm 4 m/S 750 mmHg 46%
14:00 +34°C° 0 mm 4 m/S 750 mmHg 45%
15:00 +33°C° 0 mm 4 m/S 750 mmHg 49%
16:00 +33°C° 0 mm 4 m/S 750 mmHg 54%
17:00 +32°C° 0 mm 4 m/S 750 mmHg 58%
18:00 +29°C° 0 mm 4 m/S 750 mmHg 65%
19:00 +28°C° 0 mm 3 m/S 750 mmHg 71%
20:00 +26°C° 0 mm 3 m/S 750 mmHg 78%
21:00 +25°C° 0.2 mm 2 m/S 750 mmHg 80%
22:00 +24°C° 0.2 mm 2 m/S 751 mmHg 82%
23:00 +23°C° 0.2 mm 1 m/S 751 mmHg 84%

24 Juni, Donnerstag

Zeit Temperatur Niederschläge Wind Luftdruck Luftfeuchtigkeit
00:00 +22°C° 0 mm 1 m/S 751 mmHg 83%
01:00 +22°C° 0 mm 1 m/S 751 mmHg 83%
02:00 +21°C° 0 mm 1 m/S 751 mmHg 82%
03:00 +21°C° 0 mm 1 m/S 751 mmHg 84%
04:00 +21°C° 0 mm 2 m/S 751 mmHg 86%
05:00 +21°C° 0 mm 2 m/S 750 mmHg 88%
06:00 +24°C° 0 mm 2 m/S 750 mmHg 81%
07:00 +26°C° 0 mm 3 m/S 750 mmHg 75%
08:00 +28°C° 0 mm 3 m/S 750 mmHg 68%
09:00 +29°C° 0 mm 3 m/S 750 mmHg 62%
10:00 +31°C° 0 mm 3 m/S 750 mmHg 55%
11:00 +34°C° 0 mm 4 m/S 750 mmHg 48%
12:00 +34°C° 0 mm 4 m/S 750 mmHg 46%
13:00 +34°C° 0 mm 4 m/S 750 mmHg 44%
14:00 +35°C° 0 mm 4 m/S 750 mmHg 42%
15:00 +34°C° 0 mm 4 m/S 750 mmHg 44%
16:00 +34°C° 0 mm 4 m/S 750 mmHg 47%
17:00 +33°C° 0 mm 4 m/S 750 mmHg 49%
18:00 +30°C° 0 mm 4 m/S 750 mmHg 56%
19:00 +29°C° 0 mm 3 m/S 750 mmHg 63%
20:00 +27°C° 0 mm 2 m/S 750 mmHg 71%
21:00 +26°C° 0 mm 2 m/S 750 mmHg 74%
22:00 +25°C° 0 mm 2 m/S 750 mmHg 76%
23:00 +24°C° 0 mm 2 m/S 750 mmHg 79%

25 Juni, Freitag

Zeit Temperatur Niederschläge Wind Luftdruck Luftfeuchtigkeit
00:00 +23°C° 0 mm 1 m/S 750 mmHg 80%
01:00 +23°C° 0 mm 1 m/S 750 mmHg 80%
02:00 +22°C° 0 mm 1 m/S 750 mmHg 81%
03:00 +22°C° 0 mm 1 m/S 749 mmHg 82%
04:00 +21°C° 0 mm 2 m/S 749 mmHg 84%
05:00 +21°C° 0 mm 2 m/S 749 mmHg 85%
06:00 +24°C° 0 mm 2 m/S 749 mmHg 76%
07:00 +25°C° 0 mm 3 m/S 749 mmHg 67%
08:00 +27°C° 0 mm 4 m/S 749 mmHg 58%
09:00 +29°C° 0 mm 3 m/S 749 mmHg 54%
10:00 +30°C° 0 mm 3 m/S 749 mmHg 50%
11:00 +31°C° 0 mm 3 m/S 749 mmHg 46%
12:00 +33°C° 0 mm 3 m/S 749 mmHg 45%
13:00 +34°C° 0 mm 3 m/S 749 mmHg 44%
14:00 +34°C° 0 mm 3 m/S 748 mmHg 43%
15:00 +34°C° 0 mm 3 m/S 748 mmHg 45%
16:00 +34°C° 0 mm 3 m/S 748 mmHg 47%
17:00 +33°C° 0 mm 4 m/S 748 mmHg 49%
18:00 +30°C° 0 mm 3 m/S 747 mmHg 57%
19:00 +28°C° 0 mm 3 m/S 747 mmHg 65%
20:00 +26°C° 0 mm 3 m/S 747 mmHg 73%
21:00 +25°C° 0 mm 2 m/S 747 mmHg 75%
22:00 +25°C° 0 mm 2 m/S 747 mmHg 78%
23:00 +24°C° 0 mm 2 m/S 747 mmHg 81%

26 Juni, Samstag

Zeit Temperatur Niederschläge Wind Luftdruck Luftfeuchtigkeit
00:00 +24°C° 0 mm 2 m/S 747 mmHg 82%
01:00 +23°C° 0 mm 2 m/S 747 mmHg 84%
02:00 +23°C° 0 mm 2 m/S 747 mmHg 86%
03:00 +23°C° 0 mm 2 m/S 747 mmHg 86%
04:00 +23°C° 0 mm 2 m/S 746 mmHg 85%
05:00 +23°C° 0 mm 2 m/S 746 mmHg 85%
06:00 +25°C° 0 mm 2 m/S 746 mmHg 79%
07:00 +26°C° 0 mm 2 m/S 746 mmHg 73%
08:00 +28°C° 0 mm 2 m/S 746 mmHg 67%
09:00 +29°C° 0 mm 2 m/S 746 mmHg 64%
10:00 +29°C° 0 mm 2 m/S 746 mmHg 61%
11:00 +30°C° 0 mm 2 m/S 746 mmHg 58%
12:00 +31°C° 0 mm 3 m/S 746 mmHg 55%
13:00 +33°C° 0 mm 3 m/S 745 mmHg 51%
14:00 +34°C° 0 mm 3 m/S 745 mmHg 48%
15:00 +31°C° 1.1 mm 3 m/S 745 mmHg 55%
16:00 +30°C° 1.1 mm 3 m/S 745 mmHg 63%
17:00 +28°C° 1.1 mm 4 m/S 744 mmHg 71%
18:00 +27°C° 0.6 mm 3 m/S 744 mmHg 76%
19:00 +25°C° 0.6 mm 3 m/S 745 mmHg 81%
20:00 +24°C° 0.6 mm 2 m/S 745 mmHg 86%
21:00 +23°C° 0 mm 2 m/S 745 mmHg 88%
22:00 +21°C° 0 mm 2 m/S 745 mmHg 90%
23:00 +20°C° 0 mm 3 m/S 745 mmHg 91%
Mehr zeigen

Wir brauchen deine Erlaubnis

Meteoprog und unser Service Anbieter werden persönliche Daten aufbewahren, so wie Cookies, Geräte Bezeichnung oder ähnliche Technologien von deinem Gerät und Prozess, so wie Persönliche Daten Inhalte und Werbungen, genauso wie social Media und den Verkehr zu analysieren.

  • Aufbewahrung und/oder Zugang zu deiner Geräte Informationen.

    Cookies, Geräte Bezeichnung oder andere Informationen, können aufbewahrt oder Zugang zu deinem Gerät erhalten, für den Grund, der oben angegeben wird.

  • Personalisierte Werbung und Inhalte, Messungen, Einblick in das Publikum und Produkt Entwicklung.

    Werbungen und Inhalte können personalisiert werden, basierend auf ein Profil. Mehr Daten können besser personalisierte Werbungen und Inhalte hinzufügen. Werbung und Inhalte können gezeigt und gemessen werden. Einblicke über das Publikum, welche die Werbung gesehen haben und den Inhalt, können abgeleitet werden. So wie Daten können genutzt werden, um es zu verbessern oder die Benutzer Erfahrung zu verbessern das System und die Software.

Wenn du “Ich stimme zu” klickst, erlaubst du uns, die Cookies zu benutzen die Geräte Bezeichnung, den Web oder ähnliche Technologien zu benutzen. Deine Settings, können in deinem Gerät bei deinem Browser geändert werden.

Für den bestimmten Zweck, berechtigten Interessen beruhen darauf, mehr als auf den Inhalt. Du kannst mehr darüber in unseren Privaten und Cookie Politik lesen.